PulseSat

PulseSat

COSMOS 2500 (755)

Last updated on Jan. 17, 2019, 2:58 a.m. UTC

1 40001U 14032A   19016.68735513 -.00000005  00000-0  00000+0 0  9995
2 40001  65.5076  44.9902 0007735 221.8795 297.6278  2.13102657 35736
UTC
Height (km)
Latitude
Longitude
Inclination
Orbital Period

Next 30 passes for location: Hong Kong

Rise time Rise Azimuth (degrees) Set time Set Azimuth (degrees) Duration Max altitude (degrees)

No matching passes for this satellites

PulseSat

PulseSat is the new satellites software and hardware trackering solution by Pulsely.
Satellite Two Line Element Set source: US Air Force Space Command

Download PulseSat for iOS
© 2017 Pulsely Limited